Вернуться в каталог

FENGYUN 1C DEB

АктивенSSO
NORAD 31056·DEBRIS·🇨🇳 China

Запущен May 10, 1999 с Taiyuan Satellite Launch Center

Loading…

Ближайшие Пролёты (ближайшие 24 часа)

TLE

СвежийSource: Space-Track

Эпоха: Sep 14, 2026, 10:26 UTC

1 31056U 99025BFA 26257.43522190  .00000358  00000-0  20817-3 0  9995
2 31056  98.6958 237.3838 0024473 273.8493 238.6543 14.14631044  7110

Отслеживайте FENGYUN 1C DEB в реальном времени с AllMySat

Download on the App Store